Weather in Dygdal

Russia / Sakha (Yakutia) Republic     63°18′22″N   130°23′07″E
temp.,
°C
wind,
m/s
gust,
m/s
humid.,
%
clouds,
%
prec.,
mm/h
press.,
hPa
HPBL,
m
4 march, thu
thu400:00−31w2598100 0.1 1017280
03:00−31w2697100 0.1 1016363
06:00−31w2697100 0.1 1016406
09:00−31w3595100 0.1 1016400
12:00−30w3494100 0.0 1017439
15:00−31w3694100 0.1 1018423
18:00−35w369697 0.0 1020127
21:00−37w379754 0.0 1022162
5 march, fri
fri500:00−37w379761 0.0 1023155
03:00−37w379580 0.0 1025207
06:00−39w269799 0.0 1025124
09:00−37w369499 0.0 1026231
12:00−34w359375 0.0 1026338
15:00−31w369269 0.0 1026423
18:00−34w289581 0.0 1027204
21:00−36w239748 0.0 102858
6 march, sat
sat600:00−37w239818 0.0 102750
03:00−38w229921 0.0 102819
06:00−39wsw129823 0.0 102818
09:00−36wnw119723 0.0 102897
12:00−30w118860 0.0 1026322
15:00−28w128675 0.0 1026406
18:00−33w119645 0.0 102619
21:00−35sse009523 0.0 102619
7 march, sun
sun700:00−36e11960 0.0 102619
03:00−37ese11980 0.0 102619
06:00−37e11980 0.0 102519
09:00−34e12971 0.0 102599
12:00−28e128956 0.0 1023359
15:00−25e128778 0.0 1022453
18:00−29ene249897 0.0 102265
21:00−33e239770 0.0 102261
8 march, mon
mon800:00−34e349855 0.0 102182
03:00−35ene369840 0.0 1020127
06:00−35e38961 0.0 1019182
09:00−32e48951 0.0 1018261
12:00−27e489449 0.0 1016332
15:00−24e479261 0.0 1014384
18:00−25e3893100 0.0 1014327
21:00−26e379499 0.0 1014259